OBJECT C, 43664

Orbit data source: Space-Track

You're viewing an Uncataloged Satellite

Recently launched and/or uncataloged satellites may have evolving metadata. Metadata may include but not limited to: Owner, Maufacturer, Bus, Motor, and Mission.

OBJECT C, 43664 is a satellite owned by LaserFleet (CN) in SSO that was launched on Mon, 29 Oct 2018 UTC via a CHANG ZHENG 2C launch vehicle from the Jiuquan Satellite Launch Center, China (JSC). Unknown objects in Earth's orbit typically refer to objects detected orbiting the Earth but have not yet been identified or cataloged. These objects could be anything from previously untracked satellites, spent rocket stages, debris from satellite collisions, or even natural meteoroids temporarily captured by Earth's gravity.

Loading next visibility...
OBJECT C details
Identifier
43664, 2018-083C
Orbit
SSO
Last TLE update6 hours ago
Origin
Flag of CNLaserFleet (CN / PRC)
ManufacturerChangsha Tianyi
MissionCommercial Technology
Bus & MotorCUBESAT 6U, Unknown motor
Mass8 kg wet, 8 kg dry
Launch date (UTC)
2018-10-29 (6 years ago)
Launch vehicle
CHANG ZHENG 2C
Launch site
Jiuquan Satellite Launch Center, China (JSC)
Object typeUnknown
Shape & HBRBox, 0.3 m
Radar Cross Section0.080 m², Medium (>0.1 m² and < 1m²)

Expand to show TLE details & history

TLE from 6 hours ago
0 OBJECT C
1 43664U 18083C   24361.53821731  .00160083  00000-0  12097-2 0  9998
2 43664  97.3104  32.6625 0001314 293.1467  66.9658 15.71955891342789
Epoch: 2024-12-26T12:55Z
Definitive object data (Epoch: 2024-12-26T12:55:01.975Z)
Latitude-0.00002°
Longitude103.3881°
Altitude356.125 km
Speed7.696 km/s
True Right ascension02h 10m 39s
True Declination0° 00' 00"
Sunlit
Object was in full shadow at TLE epoch
Visualization TLE readout
Latitude16.5828°
Longitude101.48097°
Altitude355.506 km
Speed7.697 km/s
Apparent Right ascension03h 55m 16s
Apparent Declination-12° 45' 43"
Sunlit
Object is in full shadow
Visualization observer readout
Local Sidereal Time18:28:31
Azimuth61.991° ENE
Elevation-46.776°
Doppler factor1
Orbital elements
Apogee altitude351.084 km
Perigee altitude349.316 km
Semi-major axis6,728.337 km
Eccentricity0.0001314
Inclination97.3104°
RAAN32.6625°
Arg. of periapsis293.1467°
True anomaly66.97966°
Mean anomaly66.9658°
Eccentric anomaly66.97273°
Mean motion3.93262 °/min
BSTAR0.0012097
Orbital period91.54 mins
Loading maneuver chart data...
Loading historical data...
Loading historical data...
Loading historical data...
Loading historical data...
Loading historical data...
Loading historical data...
Loading historical data...

OBJECT C Visibility forecast

Observer location: undefined°, undefined

Span
Click to sort rows by Start time (UTC) header in descending order
Start Az.
Max El. time (UTC)
Max El. Az.
Max El.
End time (UTC)
End Az.
4 mins2024-12-27 02:47:55.282Z201.692° SSW2024-12-27 02:49:55.282Z258.15° W26.69°2024-12-27 02:51:55.282Z319.793° NNW
4 mins2024-12-27 15:26:55.282Z351.574° N2024-12-27 15:28:55.282Z257.972° W34.533°2024-12-27 15:30:55.282Z211.324° SW
|